Location: Domachevo
(51.7500°N, 23.6000°E)
Time: 12:22:34
(UTC+03:00)

GENESIS II - Visible Passes

Search period start: 20 April 2018 00:00
Search period end: 30 April 2018 00:00
Orbit: 509 x 523 km, 64.5° (Epoch: 19 April)

Date Brightness Start Highest point End Pass type
(mag) Time Alt. Az. Time Alt. Az. Time Alt. Az.
20 Apr 6.1 00:39:28 10° NW 00:41:27 24° WNW 00:41:27 24° WNW visible
20 Apr 6.7 21:08:46 10° NNW 21:11:11 16° NNE 21:13:39 10° NE visible
20 Apr 5.2 22:46:07 10° NNW 22:49:53 39° NE 22:51:16 29° E visible
21 Apr 5.8 00:23:56 10° WNW 00:26:16 27° W 00:26:16 27° W visible
21 Apr 5.1 22:30:33 10° NNW 22:34:19 40° NE 22:36:06 25° E visible
22 Apr 5.6 00:08:22 10° WNW 00:11:06 30° W 00:11:06 30° W visible
22 Apr 5.1 22:14:58 10° NNW 22:18:45 41° NE 22:20:58 21° E visible
22 Apr 5.4 23:52:49 10° WNW 23:55:57 32° WSW 23:55:57 32° WSW visible
23 Apr 5.0 21:59:24 10° NW 22:03:11 41° NE 22:05:51 17° ESE visible
23 Apr 5.3 23:37:15 10° WNW 23:40:50 33° WSW 23:40:51 33° WSW visible
24 Apr 5.0 21:43:49 10° NW 21:47:37 42° NE 21:50:46 14° ESE visible
24 Apr 5.3 23:21:41 10° WNW 23:25:15 32° WSW 23:25:46 31° SW visible
25 Apr 5.0 21:28:14 10° NW 21:32:03 43° NE 21:35:44 11° ESE visible
25 Apr 5.4 23:06:08 10° WNW 23:09:40 31° WSW 23:10:43 27° SSW visible
26 Apr 4.9 21:12:40 10° NW 21:16:29 44° NE 21:20:17 10° ESE visible
26 Apr 5.6 22:50:34 10° WNW 22:54:04 30° WSW 22:55:43 22° SSW visible
27 Apr 5.6 22:35:01 10° WNW 22:38:29 30° WSW 22:40:46 17° S visible
28 Apr 5.7 22:19:26 10° WNW 22:22:54 29° WSW 22:25:51 13° S visible
29 Apr 5.8 22:03:52 10° WNW 22:07:18 28° WSW 22:10:44 10° S visible
